Weather History for PHKO - December, 2011

Change the Weather History Date:

Thursday, December 29, 2011

  Actual Average Record
Temperature  
Mean Temperature 72 °F -  
Max Temperature 78 °F 79 °F 88 °F (1983)
Min Temperature 66 °F 67 °F 63 °F (1999)
Cooling Degree Days 7    
Growing Degree Days 22 (Base 50)    
Moisture  
Dew Point 60 °F    
Average Humidity 65    
Maximum Humidity 83    
Minimum Humidity 47    
Precipitation  
Precipitation 0.00 in - - ()
Sea Level Pressure  
Sea Level Pressure 30.05 in    
Wind  
Wind Speed 6 mph (ESE)    
Max Wind Speed 16 mph    
Max Gust Speed -    
Visibility 10 miles    
Events      
Averages and records for this station are not official NWS values.
T = Trace of Precipitation, MM = Missing Value Source: NWS Daily Summary

Daily Weather History Graph

Daily Weather History Graph

Search for Another Location

Airport or City:

Trip Planner

Search our weather history database for the weather conditions in past years. The results will help you decide how hot, cold, wet, or windy it might be!

Date:

Astronomy

Dec. 29, 2011 Rise Set
Actual Time 6:57 AM HST 5:54 PM HST
Civil Twilight 6:33 AM HST 6:18 PM HST
Nautical Twilight 6:06 AM HST 6:46 PM HST
Astronomical Twilight 5:39 AM HST 7:13 PM HST
Moon 10:38 AM HST (12/29) 10:55 PM HST (12/29)
Length of Visible Light 11h 45m
Length of Day
10h 57m
Waxing Crescent, 28% of the Moon is Illuminated
Dec 29
Waxing Crescent
Dec 31
First Quarter
Jan 8
Full
Jan 15
Last Quarter
Jan 22
New

Hourly Weather History & Observations

Time (HST) Temp. Dew Point Humidity Pressure Visibility Wind Dir Wind Speed Gust Speed Precip Events Conditions
12:53 AM 71.1 °F 61.0 °F 70% 30.10 in 10.0 mi East 5.8 mph - N/A   Clear
1:53 AM 69.1 °F 60.1 °F 73% 30.09 in 10.0 mi ENE 3.5 mph - N/A   Clear
2:53 AM 68.0 °F 60.1 °F 76% 30.06 in 10.0 mi East 3.5 mph - N/A   Clear
3:53 AM 66.9 °F 60.1 °F 79% 30.06 in 10.0 mi ENE 4.6 mph - N/A   Clear
4:53 AM 66.9 °F 57.9 °F 73% 30.06 in 10.0 mi East 4.6 mph - N/A   Clear
5:53 AM 66.9 °F 60.1 °F 79% 30.06 in 10.0 mi ESE 4.6 mph - N/A   Clear
6:21 AM 68.0 °F 60.8 °F 78% 30.07 in 10.0 mi ESE 6.9 mph - N/A   Mostly Cloudy
6:36 AM 66.2 °F 60.8 °F 83% 30.07 in 10.0 mi ESE 6.9 mph - N/A   Scattered Clouds
6:53 AM 68.0 °F 60.1 °F 76% 30.08 in 10.0 mi East 4.6 mph - N/A   Clear
7:53 AM 70.0 °F 60.1 °F 71% 30.09 in 10.0 mi East 5.8 mph - N/A   Clear
8:53 AM 75.0 °F 64.0 °F 69% 30.10 in 10.0 mi SE 6.9 mph - N/A   Clear
9:53 AM 77.0 °F 61.0 °F 58% 30.11 in 10.0 mi SSE 4.6 mph - N/A   Clear
10:53 AM 78.1 °F 64.0 °F 62% 30.09 in 10.0 mi SW 10.4 mph - N/A   Clear
11:53 AM 78.1 °F 64.0 °F 62% 30.06 in 10.0 mi SSW 10.4 mph - N/A   Clear
12:53 PM 78.1 °F 64.9 °F 64% 30.04 in 10.0 mi SSW 9.2 mph - N/A   Overcast
1:53 PM 78.1 °F 64.0 °F 62% 30.01 in 10.0 mi SW 6.9 mph - N/A   Mostly Cloudy
2:53 PM 77.0 °F 64.9 °F 66% 30.00 in 10.0 mi SW 9.2 mph - N/A   Mostly Cloudy
3:53 PM 77.0 °F 64.0 °F 64% 30.00 in 10.0 mi WSW 5.8 mph - N/A   Overcast
4:53 PM 75.9 °F 62.1 °F 62% 30.01 in 10.0 mi South 6.9 mph - N/A   Overcast
5:53 PM 77.0 °F 55.9 °F 48% 30.01 in 10.0 mi NNE 16.1 mph - N/A   Mostly Cloudy
6:00 PM 77.0 °F 55.4 °F 47% 30.01 in 10.0 mi NNE 15.0 mph - N/A   Mostly Cloudy
6:53 PM 75.0 °F 55.9 °F 51% 30.03 in 10.0 mi NNE 11.5 mph - N/A   Overcast
7:53 PM 73.9 °F 57.0 °F 55% 30.03 in 10.0 mi North 11.5 mph - N/A   Mostly Cloudy
8:53 PM 73.9 °F 59.0 °F 59% 30.04 in 10.0 mi ESE 5.8 mph - N/A   Overcast
9:53 PM 73.9 °F 57.9 °F 57% 30.05 in 10.0 mi NNE 5.8 mph - N/A   Overcast
10:53 PM 73.0 °F 60.1 °F 64% 30.04 in 10.0 mi Calm Calm - N/A   Mostly Cloudy
11:53 PM 72.0 °F 57.0 °F 59% 30.04 in 10.0 mi NE 4.6 mph - N/A   Mostly Cloudy